Yatton Keynell, United Kingdom

12:16 PM BST on April 20, 2019 (GMT +0100)
Yatton Keynell

Weather History for 03740 - July, 1999

Change the Weather History Date:

Friday, July 23, 1999

  Actual Average Record
Temperature  
Mean Temperature 60 °F -  
Max Temperature 73 °F 68 °F - ()
Min Temperature 46 °F 53 °F - ()
Degree Days  
Heating Degree Days 6    
Growing Degree Days 10 (Base 50)    
Moisture  
Dew Point 48 °F    
Average Humidity 64    
Maximum Humidity 93    
Minimum Humidity 41    
Precipitation  
Precipitation 0.00 in 0.08 in - ()
Sea Level Pressure  
Sea Level Pressure 30.29 in    
Wind  
Wind Speed 5 mph ()    
Max Wind Speed 8 mph    
Max Gust Speed -    
Visibility 6.2 miles    
Events      
T = Trace of Precipitation, MM = Missing Value Source: Averaged Metar Reports

Daily Weather History Graph

Daily Weather History Graph

Search for Another Location

Airport or City:

Astronomy

Jul. 23, 1999 Rise Set
Actual Time 5:17 AM BST 9:10 PM BST
Civil Twilight 4:34 AM BST 9:52 PM BST
Nautical Twilight 3:34 AM BST 10:52 PM BST
Astronomical Twilight 1:44 AM BST 12:36 AM BST
Moon 4:54 PM BST (7/23) 1:38 AM BST (7/23)
Length of Visible Light 17h 17m
Length of Day
15h 52m
Waxing Gibbous, 78% of the Moon is Illuminated
Jul 23
Waxing Gibbous
Jul 28
Full
Aug 4
Last Quarter
Aug 11
New
Aug 19
First Quarter

Hourly Weather History & Observations

Time (BST) Temp. Windchill Dew Point Humidity Pressure Visibility Wind Dir Wind Speed Gust Speed Precip Events Conditions
12:50 AM 53.6 °F - 44.6 °F 72% 30.30 in 6.2 mi North 8.1 mph - N/A   Partly Cloudy
1:50 AM 51.8 °F - 44.6 °F 76% 30.30 in 6.2 mi NNE 5.8 mph - N/A   Partly Cloudy
2:50 AM 50.0 °F - 44.6 °F 82% 30.30 in 6.2 mi Calm Calm - N/A   Partly Cloudy
3:50 AM 50.0 °F - 44.6 °F 82% 30.30 in 6.2 mi NW 2.3 mph - N/A   Partly Cloudy
4:50 AM 46.4 °F 44.3 °F 42.8 °F 87% 30.30 in - WNW 4.6 mph - N/A   Clear
5:50 AM 46.4 °F 44.3 °F 44.6 °F 93% 30.30 in 6.2 mi WNW 4.6 mph - N/A   Partly Cloudy
6:50 AM 50.0 °F - 44.6 °F 82% 30.33 in 6.2 mi WSW 2.3 mph - N/A   Partly Cloudy
7:50 AM 51.8 °F - 46.4 °F 82% 30.30 in 6.2 mi West 3.5 mph - N/A   Partly Cloudy
8:50 AM 55.4 °F - 48.2 °F 77% 30.33 in 6.2 mi WNW 4.6 mph - N/A   Partly Cloudy
10:50 AM 62.6 °F - 44.6 °F 52% 30.33 in 6.2 mi NW 6.9 mph - N/A   Partly Cloudy
11:50 AM 64.4 °F - 44.6 °F 49% 30.30 in 6.2 mi NW 6.9 mph - N/A   Partly Cloudy
12:50 PM 66.2 °F - 46.4 °F 49% 30.30 in - NNW 6.9 mph - N/A   Clear
1:50 PM 69.8 °F - 46.4 °F 43% 30.30 in - WNW 6.9 mph - N/A   Clear
2:50 PM 71.6 °F - 46.4 °F 41% 30.30 in - WNW 5.8 mph - N/A   Clear
3:50 PM 71.6 °F - 48.2 °F 43% 30.27 in - WNW 5.8 mph - N/A   Clear
4:50 PM 73.4 °F - 48.2 °F 41% 30.27 in - NW 5.8 mph - N/A   Clear
5:50 PM 73.4 °F - 50.0 °F 44% 30.27 in - NW 6.9 mph - N/A   Clear
6:50 PM 73.4 °F - 51.8 °F 47% 30.27 in - WNW 6.9 mph - N/A   Clear
7:50 PM 71.6 °F - 53.6 °F 53% 30.27 in - WNW 5.8 mph - N/A   Clear
8:50 PM 68.0 °F - 53.6 °F 60% 30.27 in - West 8.1 mph - N/A   Clear
9:50 PM 64.4 °F - 53.6 °F 68% 30.27 in - WSW 8.1 mph - N/A   Clear
10:50 PM 62.6 °F - 55.4 °F 77% 30.27 in - WSW 4.6 mph - N/A   Clear
11:50 PM 60.8 °F - 55.4 °F 82% 30.27 in - Calm Calm - N/A   Clear